• In Deutschland
  • Länderverzeichnis
  • Für 7 Tage
  • Wassertemperatur
  • Satellitenkarten
  • Wetterkarte
  • Widgets
  • user-avatar
    Anmelden

    Stündliche Wetter Weißwasser

    Heute, 19 Oktober, Donnerstag

    Zeit Temperatur Niederschläge Wind Luftdruck Luftfeuchtigkeit
    00:00 +13°C° 0 mm 1 m/S 748 mmHg 86%
    01:00 +12°C° 0 mm 1 m/S 748 mmHg 90%
    02:00 +12°C° 0 mm 1 m/S 748 mmHg 90%
    03:00 +12°C° 0 mm 1 m/S 748 mmHg 91%
    04:00 +11°C° 0 mm 1 m/S 748 mmHg 91%
    05:00 +11°C° 0 mm 1 m/S 749 mmHg 91%
    06:00 +11°C° 0 mm 1 m/S 749 mmHg 91%
    07:00 +11°C° 0 mm 1 m/S 749 mmHg 91%
    08:00 +13°C° 0 mm 1 m/S 749 mmHg 83%
    09:00 +15°C° 0 mm 1 m/S 749 mmHg 75%
    10:00 +18°C° 0 mm 1 m/S 749 mmHg 67%
    11:00 +19°C° 0 mm 1 m/S 749 mmHg 63%
    12:00 +20°C° 0 mm 1 m/S 749 mmHg 59%
    13:00 +21°C° 0 mm 1 m/S 749 mmHg 54%
    14:00 +21°C° 0 mm 1 m/S 749 mmHg 57%
    15:00 +20°C° 0 mm 1 m/S 749 mmHg 60%
    16:00 +20°C° 0 mm 1 m/S 749 mmHg 63%
    17:00 +18°C° 0 mm 1 m/S 749 mmHg 68%
    18:00 +16°C° 0 mm 1 m/S 749 mmHg 72%
    19:00 +15°C° 0 mm 2 m/S 749 mmHg 77%
    20:00 +14°C° 0 mm 2 m/S 749 mmHg 78%
    21:00 +14°C° 0 mm 2 m/S 749 mmHg 79%
    22:00 +14°C° 0 mm 2 m/S 749 mmHg 79%
    23:00 +13°C° 0 mm 2 m/S 749 mmHg 79%

    Morgen, 20 Oktober, Freitag

    Zeit Temperatur Niederschläge Wind Luftdruck Luftfeuchtigkeit
    00:00 +13°C° 0 mm 2 m/S 749 mmHg 80%
    01:00 +13°C° 0 mm 2 m/S 749 mmHg 80%
    02:00 +13°C° 0 mm 2 m/S 749 mmHg 79%
    03:00 +12°C° 0 mm 2 m/S 749 mmHg 79%
    04:00 +12°C° 0 mm 2 m/S 749 mmHg 79%
    05:00 +12°C° 0 mm 2 m/S 749 mmHg 79%
    06:00 +12°C° 0 mm 2 m/S 749 mmHg 78%
    07:00 +12°C° 0 mm 2 m/S 749 mmHg 78%
    08:00 +14°C° 0 mm 2 m/S 750 mmHg 71%
    09:00 +16°C° 0 mm 2 m/S 750 mmHg 64%
    10:00 +18°C° 0 mm 2 m/S 750 mmHg 58%
    11:00 +19°C° 0 mm 2 m/S 750 mmHg 55%
    12:00 +20°C° 0 mm 3 m/S 750 mmHg 52%
    13:00 +21°C° 0 mm 3 m/S 750 mmHg 49%
    14:00 +20°C° 0 mm 2 m/S 750 mmHg 53%
    15:00 +19°C° 0 mm 2 m/S 750 mmHg 57%
    16:00 +19°C° 0 mm 2 m/S 750 mmHg 61%
    17:00 +17°C° 0 mm 2 m/S 750 mmHg 65%
    18:00 +16°C° 0 mm 2 m/S 750 mmHg 69%
    19:00 +15°C° 0 mm 2 m/S 750 mmHg 73%
    20:00 +15°C° 0 mm 2 m/S 750 mmHg 75%
    21:00 +15°C° 0 mm 2 m/S 750 mmHg 77%
    22:00 +15°C° 0 mm 2 m/S 751 mmHg 79%
    23:00 +14°C° 0 mm 2 m/S 751 mmHg 81%

    übermorgen, 21 Oktober, Samstag

    Zeit Temperatur Niederschläge Wind Luftdruck Luftfeuchtigkeit
    00:00 +14°C° 0 mm 2 m/S 751 mmHg 83%
    01:00 +13°C° 0 mm 2 m/S 751 mmHg 86%
    02:00 +13°C° 0 mm 2 m/S 751 mmHg 86%
    03:00 +13°C° 0 mm 2 m/S 751 mmHg 87%
    04:00 +13°C° 0 mm 2 m/S 750 mmHg 87%
    05:00 +13°C° 0 mm 2 m/S 750 mmHg 87%
    06:00 +13°C° 0 mm 2 m/S 750 mmHg 86%
    07:00 +14°C° 0 mm 2 m/S 750 mmHg 85%
    08:00 +15°C° 0 mm 2 m/S 750 mmHg 81%
    09:00 +16°C° 0 mm 2 m/S 750 mmHg 77%
    10:00 +17°C° 0 mm 3 m/S 750 mmHg 73%
    11:00 +17°C° 0 mm 3 m/S 750 mmHg 70%
    12:00 +18°C° 0 mm 3 m/S 749 mmHg 68%
    13:00 +19°C° 0 mm 3 m/S 749 mmHg 65%
    14:00 +19°C° 0 mm 3 m/S 749 mmHg 67%
    15:00 +18°C° 0 mm 2 m/S 749 mmHg 70%
    16:00 +18°C° 0 mm 2 m/S 748 mmHg 72%
    17:00 +17°C° 0 mm 2 m/S 748 mmHg 75%
    18:00 +17°C° 0 mm 2 m/S 748 mmHg 77%
    19:00 +16°C° 0 mm 2 m/S 748 mmHg 80%
    20:00 +16°C° 0 mm 2 m/S 748 mmHg 80%
    21:00 +16°C° 0 mm 2 m/S 748 mmHg 80%
    22:00 +16°C° 0 mm 2 m/S 748 mmHg 80%
    23:00 +14°C° 1,2 mm 3 m/S 749 mmHg 83%

    22 Oktober, Sonntag

    Zeit Temperatur Niederschläge Wind Luftdruck Luftfeuchtigkeit
    00:00 +14°C° 1,2 mm 3 m/S 749 mmHg 86%
    01:00 +14°C° 1,2 mm 4 m/S 749 mmHg 89%
    02:00 +13°C° 0,4 mm 4 m/S 749 mmHg 89%
    03:00 +13°C° 0,4 mm 4 m/S 749 mmHg 89%
    04:00 +12°C° 0,4 mm 3 m/S 749 mmHg 90%
    05:00 +12°C° 0 mm 3 m/S 749 mmHg 90%
    06:00 +11°C° 0 mm 3 m/S 749 mmHg 90%
    07:00 +11°C° 0 mm 3 m/S 749 mmHg 90%
    08:00 +12°C° 0 mm 3 m/S 749 mmHg 85%
    09:00 +12°C° 0 mm 3 m/S 750 mmHg 80%
    10:00 +13°C° 0 mm 4 m/S 750 mmHg 75%
    11:00 +13°C° 0 mm 4 m/S 750 mmHg 72%
    12:00 +13°C° 0 mm 4 m/S 750 mmHg 70%
    13:00 +13°C° 0 mm 4 m/S 749 mmHg 67%
    14:00 +13°C° 0 mm 4 m/S 749 mmHg 68%
    15:00 +12°C° 0 mm 3 m/S 749 mmHg 69%
    16:00 +12°C° 0 mm 3 m/S 749 mmHg 70%
    17:00 +12°C° 0 mm 2 m/S 750 mmHg 73%
    18:00 +12°C° 0 mm 2 m/S 750 mmHg 75%
    19:00 +10°C° 0 mm 2 m/S 750 mmHg 77%
    20:00 +10°C° 0 mm 2 m/S 750 mmHg 78%
    21:00 +9°C° 0 mm 2 m/S 750 mmHg 78%
    22:00 +9°C° 0 mm 2 m/S 751 mmHg 78%
    23:00 +8°C° 0 mm 2 m/S 751 mmHg 80%

    23 Oktober, Montag

    Zeit Temperatur Niederschläge Wind Luftdruck Luftfeuchtigkeit
    00:00 +8°C° 0 mm 2 m/S 751 mmHg 82%
    01:00 +8°C° 0 mm 2 m/S 751 mmHg 83%
    02:00 +7°C° 0 mm 2 m/S 751 mmHg 85%
    03:00 +7°C° 0 mm 2 m/S 751 mmHg 86%
    04:00 +7°C° 0 mm 2 m/S 751 mmHg 87%
    05:00 +7°C° 0 mm 2 m/S 751 mmHg 88%
    06:00 +6°C° 0 mm 2 m/S 751 mmHg 88%
    07:00 +6°C° 0 mm 2 m/S 751 mmHg 88%
    08:00 +7°C° 0,1 mm 3 m/S 752 mmHg 86%
    09:00 +8°C° 0,1 mm 3 m/S 752 mmHg 84%
    10:00 +9°C° 0,1 mm 3 m/S 752 mmHg 82%
    11:00 +9°C° 0,1 mm 3 m/S 752 mmHg 82%
    12:00 +10°C° 0,1 mm 3 m/S 753 mmHg 81%
    13:00 +10°C° 0,1 mm 3 m/S 753 mmHg 81%
    14:00 +10°C° 0,1 mm 3 m/S 753 mmHg 82%
    15:00 +10°C° 0,1 mm 3 m/S 753 mmHg 84%
    16:00 +10°C° 0,1 mm 2 m/S 754 mmHg 85%
    17:00 +10°C° 0,1 mm 2 m/S 754 mmHg 88%
    18:00 +9°C° 0,1 mm 2 m/S 754 mmHg 90%
    19:00 +9°C° 0,1 mm 2 m/S 755 mmHg 93%
    20:00 +9°C° 0,1 mm 2 m/S 755 mmHg 94%
    21:00 +8°C° 0,1 mm 2 m/S 755 mmHg 95%
    22:00 +9°C° 0,1 mm 1 m/S 756 mmHg 95%
    23:00 +9°C° 0 mm 1 m/S 756 mmHg 96%

    24 Oktober, Dienstag

    Zeit Temperatur Niederschläge Wind Luftdruck Luftfeuchtigkeit
    00:00 +8°C° 0 mm 2 m/S 756 mmHg 96%
    01:00 +8°C° 0 mm 2 m/S 756 mmHg 96%
    02:00 +8°C° 0,1 mm 2 m/S 756 mmHg 96%
    03:00 +8°C° 0,1 mm 2 m/S 757 mmHg 96%
    04:00 +8°C° 0,1 mm 2 m/S 757 mmHg 95%
    05:00 +8°C° 0 mm 2 m/S 757 mmHg 95%
    06:00 +9°C° 0 mm 1 m/S 757 mmHg 95%
    07:00 +9°C° 0 mm 1 m/S 757 mmHg 95%
    08:00 +10°C° 0 mm 1 m/S 758 mmHg 91%
    09:00 +11°C° 0 mm 1 m/S 758 mmHg 87%
    10:00 +12°C° 0 mm 1 m/S 758 mmHg 83%
    11:00 +12°C° 0 mm 1 m/S 758 mmHg 80%
    12:00 +13°C° 0 mm 1 m/S 758 mmHg 76%
    13:00 +14°C° 0 mm 1 m/S 758 mmHg 72%
    14:00 +14°C° 0 mm 1 m/S 758 mmHg 74%
    15:00 +13°C° 0 mm 1 m/S 758 mmHg 76%
    16:00 +13°C° 0 mm 1 m/S 758 mmHg 77%
    17:00 +12°C° 0 mm 1 m/S 758 mmHg 80%
    18:00 +11°C° 0 mm 1 m/S 759 mmHg 83%
    19:00 +10°C° 0 mm 1 m/S 759 mmHg 86%
    20:00 +10°C° 0 mm 1 m/S 760 mmHg 87%
    21:00 +9°C° 0 mm 1 m/S 760 mmHg 89%
    22:00 +9°C° 0 mm 1 m/S 760 mmHg 90%
    23:00 +8°C° 0 mm 1 m/S 760 mmHg 91%
    Mehr zeigen